TimeCDT,TemperatureF,Dew PointF,Humidity,Sea Level PressureIn,VisibilityMPH,Wind Direction,Wind SpeedMPH,Gust SpeedMPH,PrecipitationIn,Events,Conditions,WindDirDegrees,DateUTC
12:15 AM,63.0,36.7,38,30.19,10.0,SW,6.9,-,N/A,,Overcast,220,2013-03-30 05:15:00
12:35 AM,62.6,36.5,38,30.19,10.0,SW,4.6,-,N/A,,Mostly Cloudy,220,2013-03-30 05:35:00
12:55 AM,62.2,37.6,40,30.19,10.0,SW,4.6,-,N/A,,Mostly Cloudy,220,2013-03-30 05:55:00
1:15 AM,62.2,38.3,41,30.19,10.0,SW,5.8,-,N/A,,Scattered Clouds,220,2013-03-30 06:15:00
1:35 AM,61.0,38.3,43,30.18,10.0,SW,5.8,-,N/A,,Scattered Clouds,220,2013-03-30 06:35:00
1:55 AM,60.6,39.9,46,30.18,10.0,SW,5.8,-,N/A,,Scattered Clouds,220,2013-03-30 06:55:00
2:15 AM,59.9,40.3,48,30.18,10.0,SW,3.5,-,N/A,,Mostly Cloudy,230,2013-03-30 07:15:00
2:35 AM,59.9,41.9,51,30.17,10.0,SSW,5.8,-,N/A,,Overcast,210,2013-03-30 07:35:00
2:55 AM,59.9,42.3,52,30.17,10.0,SW,4.6,-,N/A,,Overcast,230,2013-03-30 07:55:00
3:15 AM,59.9,42.3,52,30.16,10.0,SW,4.6,-,N/A,,Overcast,230,2013-03-30 08:15:00
3:35 AM,59.9,44.1,56,30.16,10.0,SSW,3.5,-,N/A,,Overcast,210,2013-03-30 08:35:00
3:55 AM,59.9,45.0,58,30.16,10.0,Calm,Calm,-,N/A,,Mostly Cloudy,0,2013-03-30 08:55:00
4:15 AM,57.2,44.6,63,30.16,10.0,SW,3.5,-,N/A,,Mostly Cloudy,220,2013-03-30 09:15:00
4:35 AM,57.2,43.9,61,30.16,10.0,Calm,Calm,-,N/A,,Mostly Cloudy,0,2013-03-30 09:35:00
4:55 AM,57.2,46.4,67,30.16,10.0,Calm,Calm,-,N/A,,Mostly Cloudy,0,2013-03-30 09:55:00
5:15 AM,54.7,45.5,71,30.16,10.0,Calm,Calm,-,N/A,,Mostly Cloudy,0,2013-03-30 10:15:00
5:35 AM,54.7,48.4,79,30.16,10.0,Calm,Calm,-,N/A,,Mostly Cloudy,0,2013-03-30 10:35:00
5:55 AM,54.7,48.9,81,30.16,10.0,Calm,Calm,-,N/A,,Scattered Clouds,0,2013-03-30 10:55:00
6:15 AM,52.9,46.2,78,30.16,10.0,Calm,Calm,-,N/A,,Clear,0,2013-03-30 11:15:00
6:35 AM,50.7,45.5,82,30.17,10.0,Calm,Calm,-,N/A,,Clear,0,2013-03-30 11:35:00
6:55 AM,49.6,45.1,84,30.17,10.0,Calm,Calm,-,N/A,,Clear,0,2013-03-30 11:55:00
7:15 AM,49.6,44.6,83,30.18,10.0,Calm,Calm,-,N/A,,Clear,0,2013-03-30 12:15:00
7:35 AM,54.7,50.4,85,30.18,10.0,Calm,Calm,-,N/A,,Clear,0,2013-03-30 12:35:00
7:55 AM,54.7,48.4,79,30.18,10.0,Calm,Calm,-,N/A,,Clear,0,2013-03-30 12:55:00
8:15 AM,57.2,49.1,74,30.19,10.0,SSW,3.5,-,N/A,,Clear,200,2013-03-30 13:15:00
8:35 AM,59.9,49.8,69,30.19,10.0,WSW,4.6,-,N/A,,Scattered Clouds,240,2013-03-30 13:35:00
8:55 AM,59.9,49.1,67,30.19,10.0,WSW,5.8,-,N/A,,Mostly Cloudy,250,2013-03-30 13:55:00
9:15 AM,61.0,50.0,67,30.19,10.0,SW,3.5,-,N/A,,Mostly Cloudy,230,2013-03-30 14:15:00
9:35 AM,62.2,50.5,65,30.18,10.0,SW,4.6,-,N/A,,Scattered Clouds,230,2013-03-30 14:35:00
9:55 AM,62.4,50.2,64,30.18,10.0,SSW,3.5,-,N/A,,Scattered Clouds,200,2013-03-30 14:55:00
10:15 AM,66.7,51.4,58,30.17,10.0,SSW,3.5,-,N/A,,Scattered Clouds,200,2013-03-30 15:15:00
10:35 AM,67.6,50.5,54,30.16,10.0,Calm,Calm,-,N/A,,Clear,0,2013-03-30 15:35:00
10:55 AM,69.8,48.9,47,30.16,10.0,SSW,6.9,-,N/A,,Clear,210,2013-03-30 15:55:00
11:15 AM,70.9,50.0,48,30.16,10.0,West,5.8,-,N/A,,Clear,260,2013-03-30 16:15:00
11:35 AM,72.3,50.5,46,30.15,10.0,South,4.6,-,N/A,,Clear,190,2013-03-30 16:35:00
11:55 AM,74.8,52.2,45,30.14,10.0,SSE,4.6,-,N/A,,Clear,160,2013-03-30 16:55:00
12:15 PM,74.8,51.8,44,30.13,10.0,SSE,6.9,-,N/A,,Scattered Clouds,150,2013-03-30 17:15:00
12:35 PM,74.8,50.2,42,30.13,10.0,SSW,15.0,-,N/A,,Mostly Cloudy,210,2013-03-30 17:35:00
12:55 PM,74.8,48.7,40,30.12,10.0,WSW,8.1,-,N/A,,Scattered Clouds,250,2013-03-30 17:55:00
1:15 PM,74.8,47.1,37,30.11,10.0,SW,10.4,-,N/A,,Scattered Clouds,230,2013-03-30 18:15:00
1:35 PM,74.8,47.5,38,-9999,10.0,WSW,10.4,-,N/A,,Scattered Clouds,250,2013-03-30 18:35:00
1:55 PM,74.8,49.1,40,30.09,10.0,South,6.9,-,N/A,,Scattered Clouds,180,2013-03-30 18:55:00
2:15 PM,74.8,47.7,38,30.09,10.0,SSW,8.1,-,N/A,,Scattered Clouds,200,2013-03-30 19:15:00
2:35 PM,74.8,49.1,40,30.08,10.0,SSW,10.4,-,N/A,,Scattered Clouds,210,2013-03-30 19:35:00
2:55 PM,74.8,48.4,39,30.07,10.0,SSW,6.9,-,N/A,,Scattered Clouds,210,2013-03-30 19:55:00
3:15 PM,74.8,48.0,39,30.06,10.0,SSW,8.1,-,N/A,,Scattered Clouds,200,2013-03-30 20:15:00
3:35 PM,74.8,46.4,36,30.06,10.0,SW,11.5,-,N/A,,Scattered Clouds,220,2013-03-30 20:35:00
3:55 PM,74.8,47.7,38,30.06,10.0,SW,11.5,18.4,N/A,,Scattered Clouds,220,2013-03-30 20:55:00
4:15 PM,74.8,48.2,39,30.05,10.0,SW,9.2,16.1,N/A,,Scattered Clouds,220,2013-03-30 21:15:00
4:35 PM,74.8,49.1,40,30.04,10.0,SSW,8.1,-,N/A,,Scattered Clouds,200,2013-03-30 21:35:00
4:55 PM,74.8,48.7,40,30.03,10.0,SSW,8.1,-,N/A,,Scattered Clouds,210,2013-03-30 21:55:00
5:15 PM,74.8,49.5,41,30.03,10.0,SSW,6.9,-,N/A,,Scattered Clouds,200,2013-03-30 22:15:00
5:35 PM,74.8,50.7,43,30.03,10.0,SSW,8.1,-,N/A,Rain,Light Rain,210,2013-03-30 22:35:00
5:55 PM,69.6,57.0,64,30.04,7.0,WSW,9.2,-,0.01,Rain,Heavy Rain,250,2013-03-30 22:55:00
6:15 PM,63.9,58.1,81,30.04,10.0,Calm,Calm,-,0.02,,Mostly Cloudy,0,2013-03-30 23:15:00
6:35 PM,62.8,59.0,87,30.03,10.0,Calm,Calm,-,0.03,,Mostly Cloudy,0,2013-03-30 23:35:00
6:55 PM,62.6,58.3,86,30.03,10.0,Calm,Calm,-,0.03,Rain,Light Rain,0,2013-03-30 23:55:00
7:15 PM,62.2,58.6,88,30.04,7.0,Calm,Calm,-,0.01,Rain,Light Rain,0,2013-03-31 00:15:00
7:35 PM,62.1,58.8,89,30.04,7.0,Calm,Calm,-,0.01,Rain,Light Rain,0,2013-03-31 00:35:00
7:55 PM,61.7,58.5,89,30.04,5.0,Calm,Calm,-,0.01,Rain,Light Rain,0,2013-03-31 00:55:00
8:15 PM,61.0,57.9,90,30.03,3.0,Calm,Calm,-,0.01,Rain,Rain,0,2013-03-31 01:15:00
8:35 PM,61.0,58.1,90,30.03,2.5,Calm,Calm,-,0.01,,Scattered Clouds,0,2013-03-31 01:35:00
8:55 PM,61.0,58.1,90,30.03,4.0,Calm,Calm,-,0.01,,Scattered Clouds,0,2013-03-31 01:55:00
9:15 PM,61.0,58.1,90,30.03,5.0,Calm,Calm,-,N/A,Rain,Light Rain,0,2013-03-31 02:15:00
9:35 PM,61.0,58.1,90,30.05,7.0,NW,6.9,-,0.01,,Mostly Cloudy,320,2013-03-31 02:35:00
9:55 PM,61.0,57.9,90,30.05,10.0,North,3.5,-,0.01,Rain,Light Rain,360,2013-03-31 02:55:00
10:15 PM,61.0,57.6,88,30.05,10.0,Calm,Calm,-,N/A,,Scattered Clouds,0,2013-03-31 03:15:00
10:35 PM,61.0,57.7,89,30.04,4.0,Calm,Calm,-,N/A,Rain,Light Rain,0,2013-03-31 03:35:00
10:55 PM,61.0,58.1,90,30.04,2.5,Calm,Calm,-,N/A,,Scattered Clouds,0,2013-03-31 03:55:00
11:15 PM,59.9,56.7,89,30.03,2.5,Calm,Calm,-,N/A,,Clear,0,2013-03-31 04:15:00
11:35 PM,59.9,56.8,90,30.03,1.5,Calm,Calm,-,N/A,,Mostly Cloudy,0,2013-03-31 04:35:00
11:55 PM,59.9,56.8,90,30.03,1.5,Calm,Calm,-,N/A,Rain,Light Rain,0,2013-03-31 04:55:00